Terminal Aerodrome Forecast
Issued by NWS Amarillo, TX

Home | Current Version | Previous Version | Text Only | Print | Product List | Glossary On
Versions: 1 2 3 4 5 6 7 8 9 10 11 12
000
FTUS44 KAMA 301800 AAA
TAFGUY
TAF AMD
KGUY 301740Z 3018/0118 19013KT P6SM FEW080
     FM010200 19011KT P6SM SCT250
     FM010900 22014KT P6SM SCT150=

USA.gov is the U.S. government's official web portal to all federal, state and local government web resources and services.